Location: �quirre
(50.4736°N, 2.2351°E)
Time: 05:19:34
(UTC+00:00)

Cosmos 1980 - Pass Details

Date: 07 August 2020
Orbit: 838 x 848 km, 71.0° (Epoch: 19 September)

Event Time Altitude Azimuth Distance (km) Brightness Sun altitude
Rises 00:38:13 0° 331° (NNW) 3,414 7.6 -22.6°
Reaches altitude 10° 00:40:41 10° 333° (NNW) 2,477 6.8 -22.5°
Maximum altitude 00:46:22 71° 58° (ENE) 896 3.9 -22.3°
Enters shadow 00:49:27 28° 137° (SE) 1,542 4.8 -22.2°
